Location: OLV Amersfoort
(52.1552°N, 5.3872°E)
Time: 13:38:37
(UTC+02:00)

ISS - Visible Passes

Search period start: 18 April 2015 00:00
Search period end: 28 April 2015 00:00
Orbit: 396 x 403 km, 51.6° (Epoch: 18 April)

Date Brightness Start Highest point End Pass type
(mag) Time Alt. Az. Time Alt. Az. Time Alt. Az.
18 Apr -0.7 22:46:14 10° WSW 22:47:15 11° SW 22:47:44 11° SSW visible
19 Apr -1.1 21:51:20 10° W 21:53:37 18° SW 21:55:51 10° S visible
21 Apr -0.4 21:41:26 10° SW 21:41:44 10° SW 21:41:57 10° SW visible
